Regional Weather Roundup
Issued by NWS

Home | Current Version | Previous Version | Graphics & Text | Print | Product List | Glossary On
Versions: 1 2 3 4 5 6 7 8 9 10 11 12 13 14 15 16 17 18 19 20 21 22 23 24 25 26 27 28 29 30 31 32 33 34 35 36 37 38 39 40 41 42 43 44 45 46 47 48 49 50
000
ASUS44 KMEG 080000
RWRTN
TENNESSEE HOURLY STATE WEATHER ROUNDUP
NATIONAL WEATHER SERVICE MEMPHIS TN
700 PM CDT TUE JUL 07 2015

TNZ002-004-019-021-049-052-054-088>092-080100-
WEST TENNESSEE

CITY           SKY/WX    TMP DP  RH WIND       PRES   REMARKS
MEMPHIS INTL   CLOUDY    86  72  62 S7        30.01R HX  92
NWS MEMPHIS      N/A     86 N/A N/A MISG        N/A
JACKSON        CLOUDY    84  74  71 SW8       30.01R HX  91
DYERSBURG        N/A    N/A N/A N/A MISG        N/A
PARIS          MOSUNNY   73  70  88 SW3       30.01R
LEXINGTON      SUNNY     82  73  74 SW8       30.01R
$$

TNZ008-025-027-028-033-062-065-066-080100-
NORTH MIDDLE TENNESSEE

CITY           SKY/WX    TMP DP  RH WIND       PRES   REMARKS
NASHVILLE      TSTM      73  70  90 W3G18     30.05R
CLARKSVILLE    CLOUDY    76  70  82 S5        30.01R
COOKEVILLE     SUNNY     84  75  74 SW5       30.06R HX  92
CROSSVILLE     PTSUNNY   80  67  64 SW5       30.12S
$$

TNZ061-075-076-078-094-096-097-080100-
SOUTH MIDDLE TENNESSEE

CITY           SKY/WX    TMP DP  RH WIND       PRES   REMARKS
FAYETTEVILLE   SUNNY     82  72  69 SW5       30.08R
TULLAHOMA        N/A     81  70  69 SW5       30.09R
WINCHESTER     SUNNY     84  72  65 S5        30.09R
COLUMBIA       SUNNY     84  75  74 SW6       30.03R HX  92
SHELBYVILLE    SUNNY     84  73  70 S6          N/A  HX  91
$$

TNZ017-018-042-046-047-080100-
NORTHEAST TENNESSEE

CITY           SKY/WX    TMP DP  RH WIND       PRES   REMARKS
TRI CITIES     MOCLDY    82  66  58 SW6       30.11R
ELIZABETHTON   CLEAR     79  70  73 CALM      30.12S
$$

TNZ012-013-036-069-073-074-080100-
CENTRAL EAST TENNESSEE

CITY           SKY/WX    TMP DP  RH WIND       PRES   REMARKS
KNOXVILLE      CLOUDY    84  69  60 SW10      30.06S
OAK RIDGE      CLOUDY    85  68  56 VRB6      30.07S
GATLINBURG     CLEAR     82  66  57 SW3       30.07S
$$

TNZ083-085-099-080100-
SOUTHEAST TENNESSEE

CITY           SKY/WX    TMP DP  RH WIND       PRES   REMARKS
CHATTANOOGA    MOCLDY    88  68  51 SW10      30.07S HX  91
$$

SKY/WX REPORTED AS FAIR MEANS FEW OR NO CLOUDS BELOW
12 THOUSAND FEET.




USA.gov is the U.S. government's official web portal to all federal, state and local government web resources and services.